Simultaneous Nadir Overpasses (SNOs) Predictions

Prediction of SNOs between METOP-A and TERRA Satellite Orbit:

Table of predicted SNOs for the next 14.0 days since TLE Epoch: 1/25/2020
Index Date (METOP-A) Time (METOP-A) Lat,Lon (METOP-A) SZA (METOP-A ) Date (TERRA) Time (TERRA) Lat,Lon (TERRA) SZA (TERRA ) Distance(km) Time Diff (sec)
1 01/26/2020 20:52:45 -81.44, 96.50 77.35 01/26/2020 20:53:33 -81.43, 96.37 77.34 2.03 48
2 01/26/2020 21:43:25 81.43, -95.89 102.68 01/26/2020 21:42:59 81.44, -95.79 102.68 2.09 26
3 01/29/2020 16:27:07 -81.44, 162.72 78.11 01/29/2020 16:27:51 -81.44, 162.89 78.07 2.90 44
4 01/29/2020 17:17:47 81.44, -29.68 101.91 01/29/2020 17:17:18 81.43, -29.69 101.89 0.78 29
5 02/01/2020 12:01:29 -81.44,-130.68 78.88 02/01/2020 12:02:10 -81.44,-130.61 78.85 1.31 41
6 02/01/2020 12:52:09 81.43, 36.91 101.14 02/01/2020 12:51:37 81.43, 36.76 101.11 2.45 32
7 02/04/2020 07:35:52 -81.44, -64.49 79.72 02/04/2020 07:36:30 -81.43, -64.54 79.72 1.60 38
8 02/04/2020 08:26:32 81.43, 103.09 100.30 02/04/2020 08:25:56 81.43, 103.19 100.29 1.78 36
9 02/07/2020 03:10:13 -81.44, 2.08 80.56 02/07/2020 03:10:48 -81.43, 1.89 80.57 3.14 35




NCC Satellite Simultaneous Nadir Overpasses (SNOs) Prediction Service
